Regional Weather Roundup
Issued by NWS

Home | Current Version | Previous Version | Text Only | Print | Product List | Glossary On
Versions: 1 2 3 4 5 6 7 8 9 10 11 12 13 14 15 16 17 18 19 20 21 22 23 24 25 26 27
000
ASUS42 KTBW 290017
RWRFL
FLORIDA REGIONAL WEATHER ROUNDUP
NATIONAL WEATHER SERVICE TAMPA BAY RUSKIN FL
800 PM EDT SUN MAY 28 2017

NOTE: "FAIR" INDICATES FEW OR NO CLOUDS BELOW 12,000 FEET WITH NO
SIGNIFICANT WEATHER AND/OR OBSTRUCTIONS TO VISIBILITY.

FLZ001>010-012>015-112-114-115-290100-
PANHANDLE FLORIDA

CITY           SKY/WX    TMP DP  RH WIND       PRES   REMARKS
PENSACOLA      CLEAR     83  69  62 SW10      29.96S
PENSACOLA NAS  MOCLDY    80  69  69 SW7       29.97R
MILTON NAS     CLOUDY    80  73  79 S12       29.94
CRESTVIEW      CLOUDY    80  70  71 SW7       29.96F
DUKE FIELD     FAIR      81  72  73 S12       29.95S
VALPARAISO     MOCLDY    81  74  79 SW12      29.96S
MARY ESTHER    PTCLDY    81  74  79 SW9       29.96R
PANAMA CITY    FAIR      80  74  81 SW9       29.95F
TYNDALL AFB    CLOUDY    80  76  87 SW9       29.97S
APALACHICOLA   CLOUDY    81  78  91 W13       29.97F

STATION/POSITION SKY/WX   TEMP    WIND        PRES    WAVE   SWELL
                          AIR SEA DIR/SP/G            HT/PER HT/PER
                          (F)     (DEG/KT/KT) (MB)    (FT/S) (FT/S)
30.1N   87.6W              80 80  190/ 10/ 12 1014.5    2/10   2/10
29.2N   88.2W              80 81  180/ 16/ 17 1015.5R   3/ 5
28.8N   86.0W              79 79  220/  8/ 10 1016.2    2/10   2/10
PANAMA CITY BEAC           79 82  230/  9/ 11 1014.9F
TOWER C                    78     230/ 15/ 16 1015.5F
28.5N   84.5W              79 79  240/  8/  8 1016.5    1/ 8   2/ 8

$$
FLZ011-016>038-118-127-128-134-139-239-290100-
NORTH FLORIDA

CITY           SKY/WX    TMP DP  RH WIND       PRES   REMARKS
MARIANNA       CLOUDY    81  74  79 SW12      29.93F
TALLAHASSEE    CLOUDY    84  73  69 W13       29.96R
PERRY          CLEAR     82  75  80 SW12      29.97F
CROSS CITY     CLEAR     81  73  78 W9        29.99S
LAKE CITY      FAIR      84  73  70 SW13      29.95F
GAINESVILLE    CLEAR     85  72  65 W12       29.96F
WILLISTON      CLEAR     84  73  70 SW8       29.99S
PALATKA        FAIR      88  68  51 W3        29.96F
MAYPORT NAS    CLEAR     91  65  41 SW6       29.93S
JACKSONVILLE   PTCLDY    91  63  39 SW7       29.91F
JAX NAS        PTCLDY    91  65  41 W7        29.94F
FERNANDINA BEA FAIR      91  68  46 SW3       29.91S HX  95
ST AUGUSTINE   CLEAR     87  71  58 SE8       29.96S
PALM COAST     FAIR      84  71  64 E8        29.97R

STATION/POSITION SKY/WX   TEMP    WIND        PRES    WAVE   SWELL
                          AIR SEA DIR/SP/G            HT/PER HT/PER
                          (F)     (DEG/KT/KT) (MB)    (FT/S) (FT/S)
SHELL POINT      NOT AVBL
KEATON BEACH               80     240/ 17/ 19 1014.5F
CEDAR KEY                  80     270/ 10/ 12 1016.8F
FERNANDINA                 91 82  240/  3/  6 1013.8F
30.7N   81.3W                 80                N/A     2/ 3
MAYPORT                    91 81  260/  7/ 10 1014.0F
31.4N   80.9W              80 79  170/ 14/ 17 1012.5    2/ 7   2/ 7
ST AUGUSTINE               78 79  160/ 12/ 14 1015.3F

$$
FLZ040-043>046-052-053-057-058-063-144-290100-
INTERIOR CENTRAL FLORIDA

CITY           SKY/WX    TMP DP  RH WIND       PRES   REMARKS
OCALA          CLEAR     82  73  74 W12G17    30.00S
THE VILLAGES     N/A     84  73  70 S9G18     29.90R
LEESBURG       CLEAR     87  71  58 W13       30.00R
SANFORD        CLEAR     90  67  46 W8        29.97R
ORLANDO EXEC   CLEAR     90  67  46 W10       29.98R
ORLANDO INTL   PTCLDY    87  65  47 W7        29.99R
KISSIMMEE      CLEAR     88  67  49 W9        30.00R
WINTER HAVEN   CLEAR     87  61  41 W7        30.02R
LAKELAND       CLEAR     88  64  45 NW9       30.02R
BARTOW         FAIR      88  64  45 NW7       30.01S
OKEECHOBEE     PTCLDY    86  70  58 S5        29.99S

$$
FLZ041-047-054-059-064-141-147-290100-
EAST CENTRAL FLORIDA

CITY           SKY/WX    TMP DP  RH WIND       PRES   REMARKS
DAYTONA BEACH  PTCLDY    82  71  69 VRB3      29.98R
DELAND         CLEAR     90  66  45 N5        29.97R
NEW SMYRNA BEA CLEAR     82  70  65 E6        29.99S
JFK SPACE CTR  CLEAR     82  69  66 SE9       29.98R
TITUSVILLE     CLEAR     82  70  65 E6        29.99R
CAPE CANAVERAL CLEAR     82  71  70 S9        29.98R
PATRICK AFB    CLEAR     79  74  84 SE8       29.99S
MELBOURNE      CLEAR     83  69  62 E10       29.99R
VERO BEACH     CLEAR     83  70  64 SE13      29.99S
FT PIERCE      CLEAR     85  70  60 SE13      29.99R
STUART         CLEAR     84  73  70 SE9       30.01R

STATION/POSITION SKY/WX   TEMP    WIND        PRES    WAVE   SWELL
                          AIR SEA DIR/SP/G            HT/PER HT/PER
                          (F)     (DEG/KT/KT) (MB)    (FT/S) (FT/S)
28.5N   80.2W              79 78  130/  6/  6 1016.6R   1/ 8   2/ 8
28.9N   78.5W              80 80  210/  6/  8 1015.6S   2/ 8   2/ 8
TRIDENT PIER               78 79  140/  5/  8 1017.2R
28.4N   80.5W                 77                N/A     1/ 8
27.5N   80.2W                 80                N/A     1/ 6

$$
FLZ050-056-061-142-242-148-248-149-249-151-251-155-255-
160-260-290100-
WEST CENTRAL FLORIDA

CITY           SKY/WX    TMP DP  RH WIND       PRES   REMARKS
CRYSTAL RIVER  MOCLDY    79  73  83 W7        30.01F
INVERNESS      MOCLDY    81  73  78 CALM      30.02R
BROOKSVILLE    PTCLDY    80  73  79 W9        30.03S
CLEARWATER AIR FAIR      79  73  83 NW7       30.02S
ST PETE CLEARW CLEAR     81  72  74 W9        30.02S
TAMPA INTL     PTCLDY    83  72  69 W10       30.02S
TAMPA EXEC     CLEAR     86  68  54 NW8       30.02R
PLANT CITY     CLEAR     86  70  58 NW8G16    30.04R
MACDILL AFB    CLEAR     82  74  76 N6        30.02R
PETER O KNIGHT CLEAR     82  77  83 W6        30.02S
ST PETERSBURG  CLEAR     83  73  72 W9        30.01R
SARASOTA       CLEAR     81  74  79 W8        30.01S
VENICE         FAIR      81  75  83 NW9       30.03S

STATION/POSITION SKY/WX   TEMP    WIND        PRES    WAVE   SWELL
                          AIR SEA DIR/SP/G            HT/PER HT/PER
                          (F)     (DEG/KT/KT) (MB)    (FT/S) (FT/S)
27.3N   84.2W                 81                N/A     1/ 7
CLEARWATER BEACH           80 84  280/  7/ 10 1017.0S
MIDDLE TAMPA BAY           80     310/ 11/ 12 1016.9S
VENICE                     81 85  320/ 13/ 14 1016.5F

$$
FLZ066-069-070-075>078-162-262-165-265-290100-
SOUTHWEST FLORIDA AND KEYS

CITY           SKY/WX    TMP DP  RH WIND       PRES   REMARKS
PUNTA GORDA    CLEAR     83  73  72 W9        30.03R
FT MYERS       CLEAR     84  72  67 NW13      30.02R
SOUTHWEST INTL CLEAR     83  71  67 W8        30.02S
NAPLES         CLEAR     83  72  69 NW8       30.02F
MARCO ISLAND   CLEAR     82  72  69 NW10      30.03S
IMMOKALEE      FAIR      84  68  58 W6        30.02S
MARATHON       CLEAR     86  77  74 NW3       30.02S HX  97
KEY WEST NAS   PTCLDY    84  77  79 N7        30.03R
KEY WEST INTL  PTCLDY    86  77  74 N7        30.03R HX  97

STATION/POSITION SKY/WX   TEMP    WIND        PRES    WAVE   SWELL
                          AIR SEA DIR/SP/G            HT/PER HT/PER
                          (F)     (DEG/KT/KT) (MB)    (FT/S) (FT/S)
NAPLES                        87  300/ 14/ 16 1016.8F
26.0N   85.6W              83     110/  8/ 10 1015.5R   2/ 4
DRY TORTUGAS               83      30/ 10/ 11 1017.0R
SAND KEY                   84      40/  8/ 10 1017.3R
LONG KEY                   85 90  310/  6/  8 1016.6S
MOLASSES REEF              84 84  240/ 10/ 10 1016.6F

$$
FLZ067-068-071>074-168-172>174-290100-
SOUTHEAST FLORIDA

CITY           SKY/WX    TMP DP  RH WIND       PRES   REMARKS
W PALM BEACH   PTCLDY    85  73  67 SE12      30.01R
BOCA RATON     CLEAR     86  75  70 S7        30.00S HX  95
FT LAUDER-EXEC CLEAR     89  73  59 SE9       29.99F HX  97
FT LAUDERDALE  PTCLDY    86  77  74 SE10      29.99S HX  97
POMPANO BEACH  CLEAR     86  77  74 SE12      30.00S HX  97
PEMBROKE PINES PTCLDY    89  75  63 SE7       30.00R HX  99
OPA LOCKA      PTCLDY    90  72  55 W15       29.99S HX  97
MIAMI          PTCLDY    90  70  51 W9        29.99S HX  95
WEST KENDALL   CLEAR     93  70  46 W12       29.99R HX  99
HOMESTEAD      PTCLDY    87  73  61 W12       30.00R

STATION/POSITION SKY/WX   TEMP    WIND        PRES    WAVE   SWELL
                          AIR SEA DIR/SP/G            HT/PER HT/PER
                          (F)     (DEG/KT/KT) (MB)    (FT/S) (FT/S)
PORT EVERGLADES            84     140/  9/ 11 1016.0R
VIRGINIA KEY               88 87  170/ 11/ 13 1015.0S
LAKE WORTH                 83 83              1017.0R
FOWEY ROCKS                85 83  180/ 18/ 19 1016.4S
SETTLEMENT POINT           82     180/  3/  4 1016.7R

$$





USA.gov is the U.S. government's official web portal to all federal, state and local government web resources and services.